GLOBALSTAR M001 1 25162U 98008A 26036.96203715 -.00000053 00000+0 33106-3 0 9995 2 25162 52.0058 12.7927 0001703 36.6807 357.6267 12.38226949272673 GLOBALSTAR M004 1 25163U 98008B 26037.08367398 -.00000079 00000+0 14086-3 0 9992 2 25163 52.0007 60.5793 0003511 92.4560 302.6194 12.63414177291259 GLOBALSTAR M002 1 25164U 98008C 26036.38023917 -.00000082 00000+0 -10139-3 0 9991 2 25164 52.0042 15.5073 0001253 205.9481 154.1276 11.61515062211169 GLOBALSTAR M003 1 25165U 98008D 26037.09706375 -.00000200 00000+0 -11793-2 0 9995 2 25165 51.9855 240.6490 0008881 46.7948 101.8361 12.12030069261588 GLOBALSTAR M014 1 25306U 98023A 26037.10756649 -.00000051 00000+0 50433-3 0 9998 2 25306 51.9846 291.9928 0001817 66.3670 79.6631 11.65484320218441 GLOBALSTAR M006 1 25307U 98023B 26037.01990840 -.00000078 00000+0 -47335-4 0 9990 2 25307 51.9974 353.4244 0002864 167.2933 270.1560 11.58176383243924 GLOBALSTAR M015 1 25308U 98023C 26037.16967443 -.00000129 00000+0 -12639-2 0 9994 2 25308 51.9821 102.2479 0013282 132.8046 241.0052 11.48861557220971 GLOBALSTAR M008 1 25309U 98023D 26037.03258664 -.00000082 00000+0 11121-3 0 9992 2 25309 51.9945 240.0712 0002055 328.9206 197.4710 12.36080427266761 GLOBALSTAR M023 1 25621U 99004A 26037.05381648 -.00000048 00000+0 31016-3 0 9997 2 25621 52.0111 61.3041 0009367 283.6495 94.5580 12.62516834245274 GLOBALSTAR M040 1 25622U 99004B 26037.04074656 -.00000084 00000+0 10986-3 0 9998 2 25622 51.9921 65.8418 0001152 166.4701 213.5880 12.62028326244786 GLOBALSTAR M036 1 25623U 99004C 26036.87411951 -.00000033 00000+0 72259-3 0 9997 2 25623 52.0000 344.3602 0010685 136.6494 257.1484 11.86618618206726 GLOBALSTAR M038 1 25624U 99004D 26037.21058534 -.00000050 00000+0 36826-3 0 9990 2 25624 51.9971 117.6029 0002293 166.1790 220.3855 12.32540568231237 GLOBALSTAR M022 1 25649U 99012A 26036.97289685 -.00000074 00000+0 15995-3 0 9991 2 25649 52.0067 15.3582 0002444 274.7823 119.3841 12.02509380204507 GLOBALSTAR M041 1 25650U 99012B 26037.00909963 -.00000078 00000+0 99100-4 0 9991 2 25650 52.0002 263.8440 0002248 71.5197 288.5884 11.96683599206279 GLOBALSTAR M046 1 25651U 99012C 26037.17199118 -.00000011 00000+0 85551-3 0 9994 2 25651 52.0079 316.4136 0002297 11.7609 136.8144 12.09417379211972 GLOBALSTAR M037 1 25652U 99012D 26036.83362121 -.00000069 00000+0 19603-3 0 9991 2 25652 51.9985 192.5052 0001792 16.5869 131.2463 12.62461224240788 GLOBALSTAR M045 1 25676U 99019A 26036.96738557 -.00000055 00000+0 34301-3 0 9995 2 25676 51.9996 358.9390 0000404 26.6199 44.4810 12.27072521222090 GLOBALSTAR M019 1 25677U 99019B 26036.72781205 .00000034 00000+0 12903-2 0 9997 2 25677 51.9865 146.4242 0002091 90.3065 61.1524 12.13880178213500 GLOBALSTAR M044 1 25678U 99019C 26036.97099106 -.00000127 00000+0 -60501-3 0 9990 2 25678 51.9965 126.3535 0006827 129.6188 277.2749 11.90262999199160 GLOBALSTAR M042 1 25679U 99019D 26037.13189927 -.00000105 00000+0 -11597-3 0 9998 2 25679 52.0012 110.5144 0003233 72.9672 298.2991 12.22095333213861 GLOBALSTAR M025 1 25770U 99031A 26036.96309199 -.00000074 00000+0 -19911-3 0 9992 2 25770 51.9853 337.7119 0001951 158.0936 277.4977 11.22561131507966 GLOBALSTAR M049 1 25771U 99031B 26037.04048051 -.00000010 00000+0 19000-2 0 9997 2 25771 51.9900 24.0437 0002901 56.2782 303.8290 11.12121955143449 GLOBALSTAR M047 1 25772U 99031C 26036.89915189 -.00000063 00000+0 19284-3 0 9998 2 25772 51.9868 359.0064 0016322 305.4063 54.5218 11.31931956497570 GLOBALSTAR M052 1 25773U 99031D 26037.18615890 -.00000077 00000+0 -38336-3 0 9993 2 25773 51.9859 129.0995 0002986 183.4286 185.9866 11.15063583504617 GLOBALSTAR M035 1 25851U 99037A 26037.08890370 -.00000032 00000+0 12053-2 0 9990 2 25851 51.9919 253.3426 0013901 6.2426 166.4038 11.04542103122101 GLOBALSTAR M032 1 25852U 99037B 26037.09079070 -.00000137 00000+0 -22529-2 0 9994 2 25852 51.9958 62.3950 0012784 200.3391 159.6901 11.19067826160971 GLOBALSTAR M051 1 25853U 99037C 26036.80110181 -.00000079 00000+0 -17723-3 0 9998 2 25853 51.9765 197.3258 0001153 98.1420 261.9522 11.42200073159087 GLOBALSTAR M030 1 25854U 99037D 26036.98622259 -.00000106 00000+0 -66179-3 0 9992 2 25854 51.9913 348.1157 0003786 94.0465 266.0784 11.55108202177064 GLOBALSTAR M048 1 25872U 99041A 26036.56401056 -.00000052 00000+0 49334-3 0 9994 2 25872 51.9359 141.9531 0013061 224.6619 230.5543 11.33861961151450 GLOBALSTAR M026 1 25873U 99041B 26036.85848301 -.00000183 00000+0 -43897-2 0 9998 2 25873 52.0046 9.3454 0001823 307.3227 63.7679 11.06840258174361 GLOBALSTAR M043 1 25874U 99041C 26037.09407457 -.00000046 00000+0 66872-3 0 9995 2 25874 51.9375 257.6614 0013584 354.7819 170.3601 11.25697843149218 GLOBALSTAR M028 1 25875U 99041D 26036.92997802 -.00000090 00000+0 62604-4 0 9994 2 25875 51.9598 216.0765 0062761 218.3845 141.2541 12.50595716219423 GLOBALSTAR M024 1 25883U 99043A 26036.96685601 -.00000010 00000+0 19399-2 0 9993 2 25883 51.9975 213.1312 0002664 107.9912 63.9024 11.10168982140820 GLOBALSTAR M027 1 25884U 99043B 26037.10854381 -.00000083 00000+0 -71965-3 0 9993 2 25884 52.0227 297.4258 0021815 10.5520 349.5727 11.04373522167081 GLOBALSTAR M054 1 25885U 99043C 26037.04222409 -.00000077 00000+0 -14911-3 0 9998 2 25885 52.0162 25.6196 0004713 219.0109 183.8627 11.39223548145702 GLOBALSTAR M053 1 25886U 99043D 26037.19381862 -.00000043 00000+0 73527-3 0 9994 2 25886 52.0020 345.3376 0003565 112.9411 25.0910 11.27669850145843 GLOBALSTAR M058 1 25907U 99049A 26036.77642345 -.00000083 00000+0 14310-4 0 9993 2 25907 51.9914 205.4240 0002197 26.7578 333.3370 11.93208180569426 GLOBALSTAR M050 1 25908U 99049B 26036.92131653 -.00000005 00000+0 93890-3 0 9999 2 25908 51.9961 195.2494 0010005 133.7305 2.3612 12.07464711176426 GLOBALSTAR M033 1 25909U 99049C 26037.03716032 -.00000032 00000+0 57817-3 0 9992 2 25909 51.9920 50.6132 0014260 26.8751 333.2833 12.20302678564294 GLOBALSTAR M055 1 25910U 99049D 26037.07586506 -.00000088 00000+0 56146-4 0 9995 2 25910 52.0029 49.8604 0006775 256.2978 103.7120 12.29440358197056 GLOBALSTAR M057 1 25943U 99058A 26037.07841781 -.00000062 00000+0 28082-3 0 9999 2 25943 51.9995 44.4140 0002670 132.4811 227.6264 12.24832997195590 GLOBALSTAR M059 1 25944U 99058B 26037.08945229 .00000002 00000+0 10909-2 0 9994 2 25944 52.0028 294.3876 0001128 67.5268 73.8479 11.99993023602123 GLOBALSTAR M056 1 25945U 99058C 26037.15907816 -.00000103 00000+0 -18067-3 0 9991 2 25945 51.9968 290.1625 0000664 340.4790 187.0456 12.04784333190829 GLOBALSTAR M031 1 25946U 99058D 26036.78528036 .00000036 00000+0 12809-2 0 9993 2 25946 51.9946 169.5137 0000360 316.8177 191.2486 12.16048927192964 GLOBALSTAR M039 1 25961U 99062A 26037.06193215 -.00000063 00000+0 22972-3 0 9998 2 25961 51.9841 276.3715 0002985 129.1666 230.9466 12.62341097209757 GLOBALSTAR M034 1 25962U 99062B 26037.17969699 -.00000058 00000+0 36756-3 0 9997 2 25962 51.9869 123.1372 0014953 124.0129 248.8627 11.79455568166005 GLOBALSTAR M029 1 25963U 99062C 26036.78286838 -.00000086 00000+0 -11667-5 0 9999 2 25963 51.9782 183.0484 0002360 188.7122 318.5748 11.99908080197162 GLOBALSTAR M061 1 25964U 99062D 26037.15350381 -.00000078 00000+0 44397-4 0 9992 2 25964 51.9814 310.3498 0006651 46.3103 102.3877 11.76777345148727 GLOBALSTAR M063 1 26081U 00008A 26036.66593292 -.00000093 00000+0 -15486-3 0 9994 2 26081 51.9920 216.6669 0005345 50.6734 29.4918 11.86180899185281 GLOBALSTAR M062 1 26082U 00008B 26037.18221857 -.00000223 00000+0 -89337-3 0 9999 2 26082 51.9848 127.6632 0006823 247.1272 124.7511 12.43479264525731 GLOBALSTAR M060 1 26083U 00008C 26037.16097933 -.00000001 00000+0 89365-3 0 9998 2 26083 52.0018 120.8384 0003045 227.8032 140.4957 12.17675367180878 GLOBALSTAR M064 1 26084U 00008D 26037.10776396 -.00000031 00000+0 73757-3 0 9991 2 26084 52.0053 311.5773 0001661 122.3693 237.7300 11.88540574194913 GLOBALSTAR M065 1 31571U 07020A 26036.96763409 -.00000084 00000+0 10833-3 0 9997 2 31571 51.9867 234.7062 0010847 104.1869 60.8129 12.62020180862923 GLOBALSTAR M069 1 31573U 07020C 26037.09195267 -.00000071 00000+0 19819-3 0 9994 2 31573 52.0016 263.1796 0000881 216.4712 310.3759 12.23468039862753 GLOBALSTAR M072 1 31574U 07020D 26037.19388601 -.00000067 00000+0 23075-3 0 9996 2 31574 51.9930 88.9860 0001364 80.3780 314.1992 11.91655484859362 GLOBALSTAR M071 1 31576U 07020F 26037.14851074 -.00000034 00000+0 56149-3 0 9994 2 31576 52.0074 295.2329 0000380 139.5383 27.2176 12.18264964523454 GLOBALSTAR M067 1 32263U 07048A 26037.11579449 -.00000063 00000+0 25767-3 0 9992 2 32263 51.9728 71.4279 0001536 123.7542 252.5806 12.40684643838521 GLOBALSTAR M070 1 32264U 07048B 26036.74006109 -.00000086 00000+0 10125-3 0 9996 2 32264 51.9745 136.9980 0000570 109.9473 55.0738 12.62329861843161 GLOBALSTAR M066 1 32265U 07048C 26037.11208933 -.00000092 00000+0 21662-4 0 9994 2 32265 51.9591 74.1918 0005227 129.1491 247.4445 12.30383854844095 GLOBALSTAR M068 1 32266U 07048D 26037.13183804 -.00000085 00000+0 10626-3 0 9995 2 32266 51.9904 309.1071 0000777 334.8335 166.3180 12.62839363847119 GLOBALSTAR M079 1 37188U 10054A 26036.79256909 -.00000084 00000+0 10927-3 0 9995 2 37188 52.0032 148.6541 0001034 100.4329 64.8224 12.62270253705959 GLOBALSTAR M074 1 37189U 10054B 26036.73966096 -.00000086 00000+0 99123-4 0 9993 2 37189 52.0007 148.1022 0000941 118.8722 44.8659 12.62265694706557 GLOBALSTAR M076 1 37190U 10054C 26036.25841126 -.00000095 00000+0 50684-4 0 9997 2 37190 52.0020 149.7593 0001121 114.0822 261.3524 12.62270018706210 GLOBALSTAR M077 1 37191U 10054D 26036.76626700 -.00000053 00000+0 45517-3 0 9995 2 37191 51.9961 153.0605 0001453 113.4165 55.0158 11.68178399705782 GLOBALSTAR M075 1 37192U 10054E 26036.85845023 -.00000100 00000+0 19334-4 0 9999 2 37192 51.9928 190.0589 0000922 96.3283 67.9372 12.62264107705359 GLOBALSTAR M073 1 37193U 10054F 26036.62134356 -.00000073 00000+0 17452-3 0 9992 2 37193 52.0060 104.7812 0000845 113.1516 51.6090 12.62269235707313 GLOBALSTAR M083 1 37739U 11033A 26037.08073468 -.00000112 00000+0 -46370-4 0 9990 2 37739 51.9868 51.7894 0000576 99.9325 295.1505 12.62266877676392 GLOBALSTAR M088 1 37740U 11033B 26037.15825148 -.00000071 00000+0 18497-3 0 9991 2 37740 52.0238 317.6655 0000582 64.7502 82.3086 12.62261055671949 GLOBALSTAR M091 1 37741U 11033C 26037.09281110 -.00000078 00000+0 14567-3 0 9991 2 37741 51.9996 281.0265 0000898 62.0812 86.6531 12.62269555672727 GLOBALSTAR M085 1 37742U 11033D 26037.00265006 -.00000107 00000+0 -18076-4 0 9993 2 37742 52.0099 232.4760 0001109 74.1511 85.1556 12.62269072673221 GLOBALSTAR M081 1 37743U 11033E 26037.03014276 -.00000102 00000+0 86608-5 0 9999 2 37743 51.9932 234.9767 0001115 84.7647 80.1704 12.62262190673374 GLOBALSTAR M089 1 37744U 11033F 26036.71972637 -.00000111 00000+0 -41581-4 0 9999 2 37744 51.9911 190.1050 0001003 115.5532 257.9460 12.62264076674180 GLOBALSTAR M084 1 38040U 11080A 26037.05093834 -.00000094 00000+0 52933-4 0 9994 2 38040 52.0014 56.5079 0000573 141.3182 237.5848 12.62267697652206 GLOBALSTAR M080 1 38041U 11080B 26037.02287031 -.00000091 00000+0 72109-4 0 9990 2 38041 52.0065 58.2665 0000320 36.1290 344.7543 12.62266074652328 GLOBALSTAR M082 1 38042U 11080C 26036.96212397 -.00000105 00000+0 -52902-5 0 9993 2 38042 52.0097 13.9382 0000476 35.6896 358.8582 12.62267152653021 GLOBALSTAR M092 1 38043U 11080D 26037.17148172 -.00000077 00000+0 15082-3 0 9990 2 38043 52.0081 103.6908 0000641 118.5771 267.8857 12.62270015651500 GLOBALSTAR M090 1 38044U 11080E 26037.00582360 -.00000101 00000+0 17856-4 0 9994 2 38044 52.0147 7.7196 0000532 69.5439 42.3856 12.62266437653142 GLOBALSTAR M086 1 38045U 11080F 26036.32394690 -.00000091 00000+0 70717-4 0 9999 2 38045 51.9921 9.9392 0001446 107.4157 37.4988 12.62282411653003 GLOBALSTAR M097 1 39072U 13005A 26037.03348588 -.00000086 00000+0 97226-4 0 9991 2 39072 52.0047 282.5809 0000971 73.5681 286.5293 12.62268629600344 GLOBALSTAR M093 1 39073U 13005B 26037.00725853 -.00000080 00000+0 13016-3 0 9991 2 39073 52.0100 275.9586 0001235 70.3331 289.7669 12.62272665600295 GLOBALSTAR M094 1 39074U 13005C 26036.84894472 -.00000106 00000+0 -10631-4 0 9998 2 39074 51.9937 190.6857 0001177 91.0056 269.0946 12.62266838601885 GLOBALSTAR M096 1 39075U 13005D 26037.02036816 -.00000101 00000+0 17727-4 0 9997 2 39075 52.0049 238.8621 0001144 75.8803 284.2190 12.62263083600822 GLOBALSTAR M078 1 39076U 13005E 26037.15241497 -.00000040 00000+0 35473-3 0 9994 2 39076 51.9896 322.6522 0001053 11.2146 348.8744 12.62276704599469 GLOBALSTAR M095 1 39077U 13005F 26037.17894755 -.00000078 00000+0 14617-3 0 9996 2 39077 52.0103 319.9904 0000984 44.8146 315.2800 12.62268225599325 GLOBALSTAR M087 1 52888U 22064A 26037.19217497 -.00000085 00000+0 10564-3 0 9995 2 52888 51.9998 101.2622 0000685 97.8174 262.2771 12.62266621174590